Location: Wiler
(46.4041°N, 7.7840°E)
Time: 13:27:02
(UTC+00:00)

Cosmos 1570 Rocket - Pass Details

Date: 09 April 2020
Orbit: 764 x 787 km, 74.1° (Epoch: 02 June)

Event Time Altitude Azimuth Distance (km) Brightness Sun altitude
Rises 20:46:18 0° 338° (NNW) 3,291 8.4 -24.5°
Reaches altitude 10° 20:48:42 10° 338° (NNW) 2,356 7.4 -24.8°
Maximum altitude 20:54:05 89° 64° (ENE) 791 3.9 -25.4°
Enters shadow 20:54:29 77° 156° (SSE) 808 3.9 -25.5°
